• Join FlightAware (Why Join?)
  • Login
  • US Flag 
03:29AM EST


 

Airport Tracker/Info


-or-


 

Live Flight TrackerFlight Track Log ✈ RPA3496 ✈ 12-May-2014 ✈ KPHL - KLGA

Flight Track Log - Related Links

Times and Time Zones

All times are in EDT time to prevent confusion due to time zone crossing. See the RPA3496 flight status page for this flight to view local times or setup timezone preferences in your user account.

Time Position Orientation Groundspeed Altitude Reporting Facility
EDT Latitude Longitude Course Direction KTS MPH feet Rate Location/Type
02:32PM 39.8667 -75.2667 218° Southwest 155 178 900  Level Philadelphia TRACON
02:32PM 39.8500 -75.2833 218° Southwest 151 174 1,700 2,047 Climbing Philadelphia TRACON
02:33PM 39.8000 -75.3333 218° Southwest 252 290 3,800 2,628 Climbing Philadelphia TRACON
02:34PM 39.7333 -75.3333 180° South 292 336 7,000 2,050 Climbing Philadelphia TRACON
02:35PM 39.7667 -75.2333 67° East 306 352 7,900 450 Climbing Philadelphia TRACON
02:36PM 39.8000 -75.1333 67° East 302 348 7,900  Level Philadelphia TRACON
02:37PM 39.8333 -75.0333 67° East 310 357 7,900 38 Level Philadelphia TRACON
02:39PM 39.9333 -74.9000 46° Northeast 303 349 8,000 77 Climbing New York TRACON
02:40PM 39.9833 -74.8167 52° Northeast 305 351 8,100 53 Climbing New York TRACON
02:40PM 40.0333 -74.7333 52° Northeast 306 352 8,100  Level New York TRACON
02:41PM 40.0833 -74.6667 46° Northeast 305 351 8,100  Level New York TRACON
02:42PM 40.1500 -74.5833 44° Northeast 303 349 8,100  Level New York TRACON
02:43PM 40.2167 -74.5333 30° Northeast 296 341 8,100  Level New York TRACON
02:44PM 40.3000 -74.5167 North 290 334 8,100  Level New York TRACON
02:45PM 40.3667 -74.4833 21° North 291 335 8,100  Level New York TRACON
02:46PM 40.4000 -74.3833 66° East 315 362 8,100  Level New York TRACON
02:47PM 40.4000 -74.2833 90° East 315 362 8,100 -53 Level New York TRACON
02:48PM 40.4333 -74.1833 66° East 309 356 8,000 -950 Descending New York TRACON
02:49PM 40.5000 -74.1333 30° Northeast 288 331 6,200 -1,750 Descending New York TRACON
02:50PM 40.5667 -74.0667 37° Northeast 282 325 4,500 -1,050 Descending New York TRACON
02:51PM 40.6500 -74.0500 North 272 313 4,100 -200 Descending New York TRACON
02:52PM 40.7167 -74.0167 21° North 277 319 4,100  Level New York TRACON
02:53PM 40.7833 -73.9833 21° North 274 315 4,100  Level New York TRACON
02:54PM 40.8500 -73.9500 21° North 231 266 4,100  Level New York TRACON
02:55PM 40.9000 -73.9167 27° Northeast 229 264 4,100  Level New York TRACON
02:56PM 40.9500 -73.8667 37° Northeast 199 229 4,100  Level New York TRACON
02:57PM 40.9833 -73.8167 49° Northeast 199 229 4,100 -500 Level New York TRACON
02:58PM 40.9667 -73.7333 105° East 199 229 3,100 -952 Descending New York TRACON
02:59PM 40.9167 -73.7667 207° Southwest 177 204 2,100 -500 Descending New York TRACON
03:00PM 40.8667 -73.8000 207° Southwest 177 204 2,100 -450 Level New York TRACON
03:01PM 40.8333 -73.8333 217° Southwest 146 168 1,200 -750 Descending New York TRACON
03:02PM 40.8000 -73.8500 201° Southwest 128 147 600 -600 Descending New York TRACON
03:04PM 40.7667 -73.8667 190° South  Level FlightAware Approximate